Date String (YYYY-MM-DD hh:mm:ss) UTC,Instrument flags,Ambient pressure (hPa),Sample flow (lpm),Bypass flow (lpm),Sample temperature (°C),Ambient temperature (°C),ASC tube jacket temperature (°C),LED temperature (°C),Box temperature (°C),Sample RH (%),Span deviation,Mass concentration (μg/m³),Mass concentration (μg/m³),Mass concentration (μg/m³)
DateTimeUTC,F1_M11,P_M11,Q1_M11,Q2_M11,T1_M11,T2_M11,T3_M11,T4_M11,T5_M11,U1_M11,ZSPAN_M11,X0_M11,X2_M11,X1_M11
2022-08-02 02:00:00,,0826.9,5.00,0.00,29.4,28.4,00.0,38.0,31.4,23.7,0000.0,0009.60,0006.72,0006.42
2022-08-02 02:01:00,,0826.9,4.99,0.00,29.4,27.8,00.0,38.0,31.2,23.7,0000.0,0009.64,0006.74,0006.42
2022-08-02 02:02:00,,0826.9,5.01,0.00,29.3,27.1,00.0,38.0,31.1,23.8,0000.0,0009.66,0006.75,0006.43
2022-08-02 02:03:00,,0826.9,5.01,0.00,29.3,26.9,00.0,38.0,31.0,23.7,0000.0,0009.69,0006.81,0006.46
2022-08-02 02:04:00,,0826.9,5.00,0.00,29.2,27.0,00.0,38.0,30.9,23.8,0000.0,0009.79,0006.84,0006.47
2022-08-02 02:05:00,,0826.9,5.01,0.00,29.2,27.1,00.0,38.0,30.9,23.9,0000.0,0010.07,0006.82,0006.46
2022-08-02 02:06:00,,0826.9,5.00,0.00,29.1,27.3,00.0,37.9,30.9,23.9,0000.0,0010.04,0006.81,0006.46
2022-08-02 02:07:00,,0826.9,5.00,0.00,29.2,27.5,00.0,37.9,31.0,23.9,0000.0,0010.04,0006.81,0006.48
2022-08-02 02:08:00,,0826.9,4.99,0.00,29.2,27.6,00.0,37.9,31.1,24.0,0000.0,0010.00,0006.84,0006.49
2022-08-02 02:09:00,,0826.8,5.00,0.00,29.2,27.8,00.0,38.0,31.1,24.0,0000.0,0009.92,0006.88,0006.51
2022-08-02 02:10:00,,0827.0,5.00,0.00,29.2,28.0,00.0,38.0,31.2,24.0,0000.0,0010.36,0006.92,0006.52
2022-08-02 02:11:00,,0826.8,5.01,0.00,29.3,28.1,00.0,38.0,31.2,24.0,0000.0,0010.38,0006.93,0006.53
2022-08-02 02:12:00,,0827.0,5.00,0.00,29.3,28.2,00.0,38.0,31.3,23.9,0000.0,0010.44,0006.97,0006.57
2022-08-02 02:13:00,,0826.9,4.99,0.00,29.3,28.3,00.0,38.1,31.3,24.0,0000.0,0010.50,0007.00,0006.59
2022-08-02 02:14:00,,0826.9,4.99,0.00,29.4,28.4,00.0,38.1,31.4,23.8,0000.0,0010.52,0007.02,0006.60
2022-08-02 02:15:00,,0826.9,4.99,0.00,29.4,28.2,00.0,38.1,31.3,23.8,0000.0,0010.28,0007.03,0006.62
2022-08-02 02:16:00,,0826.8,5.01,0.00,29.4,27.4,00.0,38.0,31.2,23.8,0000.0,0010.00,0007.06,0006.65
2022-08-02 02:17:00,,0826.8,4.99,0.00,29.3,27.0,00.0,38.0,31.1,23.9,0000.0,0010.11,0007.10,0006.67
2022-08-02 02:18:00,,0826.7,5.00,0.00,29.3,27.0,00.0,38.0,31.0,23.9,0000.0,0010.57,0007.12,0006.69
2022-08-02 02:19:00,,0826.8,4.99,0.00,29.2,27.1,00.0,38.0,30.9,24.1,0000.0,0010.57,0007.11,0006.70
2022-08-02 02:20:00,,0826.9,5.01,0.00,29.2,27.2,00.0,38.0,31.0,24.2,0000.0,0010.62,0007.12,0006.72
2022-08-02 02:21:00,,0826.8,4.99,0.00,29.2,27.4,00.0,38.0,31.0,24.2,0000.0,0010.46,0007.12,0006.74
2022-08-02 02:22:00,,0826.9,4.99,0.00,29.2,27.6,00.0,38.0,31.1,24.1,0000.0,0010.47,0007.09,0006.73
2022-08-02 02:23:00,,0826.9,5.00,0.00,29.2,27.7,00.0,38.0,31.1,24.2,0000.0,0010.51,0007.09,0006.71
2022-08-02 02:24:00,,0826.8,5.01,0.00,29.2,27.9,00.0,38.0,31.2,24.0,0000.0,0010.58,0007.09,0006.70
2022-08-02 02:25:00,,0826.8,5.00,0.00,29.3,28.0,00.0,38.0,31.2,24.0,0000.0,0010.59,0007.09,0006.69
2022-08-02 02:26:00,,0826.8,5.00,0.00,29.3,28.2,00.0,38.0,31.3,24.1,0000.0,0010.63,0007.09,0006.68
2022-08-02 02:27:00,,0826.7,5.00,0.00,29.3,28.3,00.0,38.1,31.3,24.0,0000.0,0010.67,0007.07,0006.67
2022-08-02 02:28:00,,0826.7,5.01,0.00,29.4,28.4,00.0,38.1,31.4,24.0,0000.7,0010.73,0007.07,0006.66
2022-08-02 02:29:00,,0826.7,4.99,0.00,29.4,28.5,00.0,38.1,31.4,24.0,0000.0,0010.38,0007.06,0006.66
2022-08-02 02:30:00,,0826.7,5.01,0.00,29.4,28.2,00.0,38.1,31.3,23.9,0000.0,0010.39,0007.07,0006.64
2022-08-02 02:31:00,,0826.7,4.99,0.00,29.4,27.4,00.0,38.1,31.1,24.0,0000.0,0010.27,0007.07,0006.61
2022-08-02 02:32:00,,0826.7,5.00,0.00,29.3,27.0,00.0,38.1,31.1,24.1,0000.0,0010.04,0007.08,0006.60
2022-08-02 02:33:00,,0826.6,5.00,0.00,29.3,27.0,00.0,38.0,31.0,24.1,0000.0,0010.02,0007.08,0006.59
2022-08-02 02:34:00,,0826.7,5.01,0.00,29.2,27.1,00.0,38.0,31.0,24.0,0000.0,0010.01,0007.06,0006.57
2022-08-02 02:35:00,,0826.6,5.00,0.00,29.2,27.2,00.0,38.0,31.0,24.0,0000.9,0009.91,0007.00,0006.54
2022-08-02 02:36:00,,0826.7,5.00,0.00,29.2,27.4,00.0,38.0,31.0,24.1,0000.4,0009.72,0006.93,0006.49
2022-08-02 02:37:00,,0826.7,5.00,0.00,29.2,27.6,00.0,38.0,31.1,24.0,0000.0,0009.62,0006.86,0006.45
2022-08-02 02:38:00,,0826.6,4.99,0.00,29.2,27.8,00.0,38.0,31.1,23.9,0000.0,0009.46,0006.80,0006.41
2022-08-02 02:39:00,,0826.6,5.00,0.00,29.3,27.9,00.0,38.0,31.2,23.9,0000.0,0009.31,0006.75,0006.37
2022-08-02 02:40:00,,0826.7,5.00,0.00,29.3,28.1,00.0,38.0,31.2,23.7,0000.0,0009.15,0006.71,0006.33
2022-08-02 02:41:00,,0826.6,5.00,0.00,29.3,28.2,00.0,38.1,31.3,23.8,0000.0,0009.06,0006.65,0006.29
2022-08-02 02:42:00,,0826.6,5.00,0.00,29.4,28.3,00.0,38.1,31.3,23.7,0000.0,0009.04,0006.59,0006.22
2022-08-02 02:43:00,,0826.6,5.01,0.00,29.4,28.4,00.0,38.1,31.4,23.5,0000.6,0008.90,0006.48,0006.14
2022-08-02 02:44:00,,0826.6,4.99,0.00,29.4,28.5,00.0,38.1,31.4,23.3,0003.1,0008.90,0006.44,0006.08
2022-08-02 02:45:00,,0826.6,5.00,0.00,29.5,28.4,00.0,38.1,31.5,23.2,0000.0,0008.84,0006.35,0006.00
2022-08-02 02:46:00,,0826.6,5.01,0.00,29.5,27.8,00.0,38.1,31.3,23.3,0000.0,0008.71,0006.29,0005.95
2022-08-02 02:47:00,,0826.7,4.99,0.00,29.4,27.2,00.0,38.1,31.2,23.4,0000.0,0008.63,0006.23,0005.92
2022-08-02 02:48:00,,0826.7,5.00,0.00,29.3,27.0,00.0,38.1,31.1,23.5,0000.0,0008.56,0006.18,0005.86
2022-08-02 02:49:00,,0826.6,5.00,0.00,29.3,27.1,00.0,38.1,31.0,23.6,0000.0,0008.53,0006.14,0005.82
2022-08-02 02:50:00,,0826.6,5.00,0.00,29.2,27.2,00.0,38.0,31.0,23.6,0000.0,0008.53,0006.12,0005.78
2022-08-02 02:51:00,,0826.6,4.99,0.00,29.2,27.4,00.0,38.0,31.1,23.6,0000.0,0008.48,0006.07,0005.74
2022-08-02 02:52:00,,0826.6,5.00,0.00,29.2,27.6,00.0,38.0,31.1,23.6,0000.0,0008.46,0006.01,0005.70
2022-08-02 02:53:00,,0826.6,5.02,0.00,29.3,27.7,00.0,38.0,31.2,23.5,0000.0,0008.44,0005.97,0005.68
2022-08-02 02:54:00,,0826.6,4.99,0.00,29.3,27.9,00.0,38.1,31.2,23.5,0000.0,0008.50,0005.98,0005.67
2022-08-02 02:55:00,,0826.6,5.00,0.00,29.3,28.0,00.0,38.1,31.3,23.5,0000.0,0008.43,0005.96,0005.66
2022-08-02 02:56:00,,0826.6,5.00,0.00,29.3,28.2,00.0,38.1,31.3,23.4,0000.0,0008.36,0005.96,0005.66
2022-08-02 02:57:00,,0826.6,5.00,0.00,29.4,28.3,00.0,38.1,31.4,23.2,0000.0,0008.38,0005.97,0005.66
2022-08-02 02:58:00,,0826.6,4.99,0.00,29.4,28.4,00.0,38.1,31.4,22.9,0000.4,0008.40,0005.97,0005.65
2022-08-02 02:59:00,,0826.7,5.00,0.00,29.4,28.5,00.0,38.2,31.4,22.9,0002.4,0008.39,0005.97,0005.65
